TIME,DELAY(SENSOR),PRES,OXYGEN,RAWTEMP,T(OPTODE),TCPHASE,FLUOR,BETA(BETA700),BETA(BETA412),BETA(BETA440),CDOM,C(CSC),ED(ED412.40),ED(ED444.00),ED(ED489.70),ED(ED554.30),LU(LU411.80),LU(LU443.40),LU(LU489.60),LU(LU554.10),COMP,TILTX,TILTY,CHECK
1357271241,5806,874.1199951171875000,46.3843498229980500,665.4439697265625000,4.4485840797424320,54.1197509765625000,52,98,86,79,81,15113,2147758509,2147423003,2148008914,2147875739,2147639177,2147058633,2148258523,2147197220,2688,4,13,53402
1357274837,5809,964.9000244140625000,52.0570487976074200,671.9146118164062000,4.2349319458007810,53.4138793945312500,53,99,87,80,80,15113,2147756818,2147425499,2148009033,2147876077,2147640694,2147057993,2148257874,2147196425,3091,4,13,26469
1357278437,5808,977.8599853515625000,49.7617607116699200,675.2171020507812000,4.1257038116455080,53.7672195434570300,53,100,83,79,80,15114,2147757942,2147421833,2148007744,2147875273,2147641920,2147051638,2148264713,2147193069,256,4,13,9889
1357282037,5810,983.6099853515625000,50.0710792541503900,675.6516113281250000,4.1113219261169430,53.7330207824707000,52,97,85,79,80,15110,2147759424,2147422500,2148007680,2147876672,2147643337,2147055140,2148262436,2147199378,160,4,13,41926
1357285637,5808,979.2600097656250000,50.2191886901855500,676.8776245117188000,4.0707359313964840,53.7241706848144500,52,99,92,79,82,15110,2147760758,2147421824,2148007625,2147874258,2147645302,2147053906,2148264713,2147196928,3592,4,13,13565
1357289237,5806,986.0599975585938000,50.2235794067382800,676.7374267578125000,4.0753769874572750,53.7275886535644500,53,98,86,79,81,15112,2147760027,2147421952,2148008850,2147875200,2147642706,2147059940,2148261952,2147194660,104,4,13,48903
1357292837,5807,993.5499877929688000,50.1712188720703100,676.0037841796875000,4.0996651649475100,53.7240905761718750,54,99,89,79,81,15108,2147759195,2147423049,2148009929,2147873508,2147646089,2147057325,2148263680,2147198070,567,4,13,7457
1357296437,5808,998.7000122070312000,48.9939918518066400,674.8818969726562000,4.1367950439453125,53.8694496154785160,52,97,87,79,82,15112,2147760283,2147424941,2148008438,2147875318,2147644443,2147057664,2148257929,2147196818,62,4,13,35652
1357300037,5809,1002.0100097656250000,48.6094017028808600,675.0966796875000000,4.1296877861022950,53.9240188598632800,53,107,87,79,81,15111,2147755410,2147423332,2148009792,2147876169,2147642377,2147060443,2148258258,2147196032,103,4,13,41525
1357303637,5810,1005.5599975585938000,48.5040588378906250,674.2833862304688000,4.1565971374511720,53.9331817626953100,52,97,86,79,79,15102,2147758994,2147423954,2148008612,2147875108,2147644516,2147057243,2148260224,2147197138,577,4,13,41676
1357307237,5806,1003.6300048828125000,48.2034797668457000,674.5675048828125000,4.1471958160400390,53.9749603271484400,53,98,89,78,81,15102,2147759424,2147425188,2148008429,2147876480,2147644937,2147059254,2148263835,2147197403,3442,4,14,57195
1357310837,5810,1004.4199829101562000,48.1810188293457000,674.6403198242188000,4.1447911262512210,53.9813117980957000,53,97,88,79,81,15101,2147756964,2147425682,2148009133,2147875273,2147644004,2147055296,2148262089,2147195638,3535,4,13,56522
1357314437,5811,1001.6199951171875000,48.6368789672851560,675.4506225585938000,4.1179771423339840,53.9253005981445300,52,98,88,78,80,15103,2147758866,2147425590,2148008502,2147877184,2147639149,2147054765,2148258057,2147192923,35,4,13,36439
1357318037,5807,1003.3499755859375000,48.5880012512207000,675.2996215820312000,4.1229720115661620,53.9340400695800800,53,98,85,79,80,15100,2147758006,2147425673,2148010688,2147875053,2147645120,2147062052,2148263826,2147196251,96,4,13,7389
1357321637,5806,995.4099731445312000,48.5477409362793000,675.1323852539062000,4.1285061836242680,53.9388389587402340,52,99,88,79,81,15101,2147760393,2147422537,2148008722,2147875044,2147643008,2147063003,2148257124,2147199734,1034,4,13,19461
1357325237,5808,1000.6500244140625000,48.7162399291992200,675.4633178710938000,4.1175560951232910,53.9158897399902340,53,98,85,78,82,15085,2147757915,2147424018,2148009426,2147874642,2147644717,2147055981,2148263460,2147196745,74,4,13,43230
1357328837,5809,1000.4500122070312000,48.6418609619140600,676.3046875000000000,4.0897049903869630,53.9351882934570300,52,101,87,80,82,15096,2147760155,2147427419,2148007204,2147875958,2147644315,2147064493,2148259730,2147194953,122,4,13,64250
1357332437,5806,1008.4299926757812000,49.0993003845214840,675.5040893554688000,4.1162052154541020,53.8621215820312500,53,99,86,79,80,15097,2147758875,2147422436,2148006893,2147870610,2147643785,2147054747,2148260891,2147196178,226,4,13,52423
1357336037,5811,997.6099853515625000,48.6067810058593750,675.5272216796875000,4.1154398918151855,53.9307518005371100,52,99,90,79,82,15099,2147757696,2147426642,2148007716,2147872210,2147643602,2147059062,2148259200,2147198363,3015,4,13,22025
1357339637,5809,1001.3599853515625000,48.9914512634277340,676.2042846679688000,4.0930271148681640,53.8858718872070300,52,98,87,80,82,15095,2147762925,2147424182,2148009161,2147874752,2147642596,2147054912,2148260726,2147196086,77,4,13,64216
1357343237,5812,998.2700195312500000,49.4055786132812500,676.9514160156250000,4.0682911872863770,53.8413085937500000,52,100,87,79,81,15096,2147761243,2147423872,2148007442,2147873581,2147642386,2147055515,2148264630,2147194998,3366,4,13,9883
1357346837,5808,997.0200195312500000,49.9998016357421900,677.8156738281250000,4.0396652221679690,53.7710609436035160,52,100,88,79,81,15094,2147760402,2147421915,2148010642,2147874880,2147644754,2147054957,2148261385,2147191378,3361,4,13,60241
1357350437,5812,999.0200195312500000,49.3217391967773440,676.9907226562500000,4.0669918060302730,53.8512191772460940,53,98,84,78,81,15097,2147759460,2147423195,2148010916,2147875136,2147643401,2147057033,2148258550,2147195812,3580,4,13,17132
1357354037,5811,995.7199707031250000,49.3686294555664060,677.7108764648438000,4.0431389808654785,53.8567390441894500,53,97,86,79,80,15097,2147757238,2147424749,2148011373,2147874724,2147639506,2147060041,2148268690,2147203099,6,4,13,6538
1357357637,5808,1001.2600097656250000,49.0420303344726560,677.8090209960938000,4.0398898124694820,53.8992309570312500,53,97,85,80,82,15094,2147759433,2147424000,2148008850,2147875648,2147644580,2147054326,2148261878,2147199981,291,4,13,63665
1357361237,5810,995.4500122070312000,49.7034187316894500,678.2780761718750000,4.0243492126464840,53.8161087036132800,53,99,85,79,81,15095,2147760868,2147422235,2148011227,2147874486,2147642093,2147057728,2148262646,2147197019,828,4,14,19735
1357364837,5807,998.1599731445312000,49.6005592346191400,678.1422119140625000,4.0288519859313965,53.8258094787597660,53,97,85,80,82,15093,2147759917,2147422418,2148012150,2147874294,2147644050,2147055369,2148265398,2147196955,3290,4,13,11942
1357368437,5804,993.0399780273438000,50.1278495788574200,678.4965820312500000,4.0171132087707520,53.7565116882324200,51,101,89,80,82,15091,2147760082,2147425755,2148011858,2147873865,2147642889,2147061403,2148261385,2147194477,640,4,13,47968
1357372037,5812,1004.9899902343750000,50.1906089782714840,677.9119873046875000,4.0364780426025390,53.7434806823730500,52,100,88,79,81,15089,2147758601,2147423670,2148012096,2147875712,2147641819,2147052516,2148259958,2147196992,47,4,13,57693
1357375637,5810,1008.9899902343750000,49.4134902954101560,676.2907714843750000,4.0901618003845215,53.8332099914550800,53,98,88,78,81,15091,2147757522,2147423926,2148011346,2147875337,2147643876,2147054866,2148259620,2147192265,287,4,13,44218
1357379237,5810,1017.0100097656250000,48.8479194641113300,675.4113769531250000,4.1192698478698730,53.8999099731445300,53,98,86,80,81,15087,2147757952,2147423094,2148009600,2147878985,2147641755,2147055296,2148260589,2147198811,3216,4,13,44399
1357382837,5806,1013.0000000000000000,48.6330299377441400,675.9807739257812000,4.1004238128662110,53.9371490478515600,52,102,86,79,81,15088,2147758875,2147423552,2148010916,2147875483,2147642432,2147061010,2148257673,2147198637,3517,4,13,57942
1357386437,5810,1016.0900268554688000,48.7438316345214840,674.6976928710938000,4.1428890228271480,53.9043083190918000,52,98,87,79,80,15085,2147758646,2147423680,2148010258,2147875520,2147642011,2147060681,2148256091,2147199012,482,4,13,37301
1357390037,5807,1019.1799926757812000,48.5213508605957000,674.2869873046875000,4.1564788818359375,53.9288482666015600,52,99,86,79,80,15022,2147760118,2147425910,2148004992,2147873755,2147645302,2147056109,2148261330,2147195200,857,4,13,14279
1357393637,5808,1017.8200073242188000,48.2520484924316400,673.8845825195312000,4.1697878837585450,53.9643096923828100,53,98,87,80,80,15011,2147760310,2147423817,2148008731,2147876544,2147643593,2147058889,2148257307,2147197814,3588,4,14,65196
1357397237,5808,1019.0499877929688000,48.6228218078613300,672.9301147460938000,4.2013549804687500,53.9006195068359400,53,99,88,78,81,15016,2147757595,2147424859,2148009481,2147874889,2147642569,2147059830,2148264960,2147196589,3046,4,13,7914
1357400837,5809,1009.0800170898438000,47.9329605102539060,674.3469848632812000,4.1544928550720215,54.0157318115234400,52,98,89,79,82,15019,2147759213,2147423625,2148007442,2147874294,2147643218,2147056128,2148258377,2147196388,3244,4,13,55394
1357404437,5807,1016.0499877929688000,49.0844192504882800,675.7910156250000000,4.1067090034484860,53.8677787780761700,53,98,84,78,80,15021,2147760713,2147424868,2148008941,2147875355,2147641462,2147055908,2148260041,2147193344,309,4,13,55493
1357408037,5809,1007.4600219726562000,48.4422798156738300,675.6633300781250000,4.1109352111816410,53.9554481506347660,52,99,89,79,80,15021,2147757732,2147426084,2148012827,2147873536,2147644169,2147055963,2148259830,2147197769,89,4,13,4439
1357411637,5810,999.2700195312500000,48.9378089904785160,676.6480712890625000,4.0783329010009770,53.9006004333496100,53,99,89,80,81,15022,2147762633,2147425124,2148008237,2147872274,2147639661,2147055387,2148257974,2147198006,1117,4,13,56219
1357415237,5809,1007.4500122070312000,48.8624496459960940,677.0698242187500000,4.0643711090087890,53.9163093566894500,52,98,87,79,81,15020,2147757686,2147423689,2148010523,2147875794,2147647561,2147053558,2148262857,2147196882,11,4,13,8500
1357416055,5808,1007.8699951171875000,48.5916099548339840,677.0444946289062000,4.0652079582214355,53.9529914855957000,53,98,89,79,80,15095,2147758061,2147423286,2148008941,2147875346,2147642331,2147057984,2148263049,2147198043,3455,4,13,2309
